TimeCDT,TemperatureF,Dew PointF,Humidity,Sea Level PressureIn,VisibilityMPH,Wind Direction,Wind SpeedMPH,Gust SpeedMPH,PrecipitationIn,Events,Conditions,WindDirDegrees,DateUTC
12:53 AM,42.1,30.0,62,30.00,10.0,Calm,Calm,-,N/A,,Clear,0,2012-11-01 05:53:00
1:53 AM,39.9,30.0,68,30.00,10.0,Calm,Calm,-,N/A,,Clear,0,2012-11-01 06:53:00
2:53 AM,39.0,30.9,73,30.01,10.0,Calm,Calm,-,N/A,,Clear,0,2012-11-01 07:53:00
3:53 AM,37.0,30.9,79,30.01,10.0,Calm,Calm,-,N/A,,Clear,0,2012-11-01 08:53:00
4:53 AM,36.0,30.9,82,30.02,10.0,Calm,Calm,-,N/A,,Clear,0,2012-11-01 09:53:00
5:53 AM,35.1,30.9,85,30.04,10.0,Calm,Calm,-,N/A,,Clear,0,2012-11-01 10:53:00
6:53 AM,36.0,30.9,82,30.04,10.0,Calm,Calm,-,N/A,,Clear,0,2012-11-01 11:53:00
7:53 AM,36.0,32.0,86,30.05,10.0,Calm,Calm,-,N/A,,Clear,0,2012-11-01 12:53:00
8:53 AM,45.0,34.0,65,30.07,10.0,NW,3.5,-,N/A,,Clear,310,2012-11-01 13:53:00
9:53 AM,-9999,-9999,N/A,30.05,-9999.0,Calm,Calm,-,N/A,,Clear,0,2012-11-01 14:53:00
10:53 AM,57.0,33.1,40,30.06,10.0,South,8.1,-,N/A,,Clear,190,2012-11-01 15:53:00
11:53 AM,59.0,33.1,38,30.05,10.0,South,10.4,-,N/A,,Clear,190,2012-11-01 16:53:00
12:53 PM,63.0,35.1,35,30.01,10.0,SW,6.9,-,N/A,,Clear,220,2012-11-01 17:53:00
1:53 PM,62.1,35.1,37,29.99,10.0,South,9.2,-,N/A,,Clear,190,2012-11-01 18:53:00
2:53 PM,64.0,37.0,37,29.97,9.0,SSW,9.2,-,N/A,,Mostly Cloudy,210,2012-11-01 19:53:00
3:53 PM,64.0,39.0,40,29.95,9.0,SSW,8.1,-,N/A,,Mostly Cloudy,200,2012-11-01 20:53:00
4:53 PM,64.9,39.0,39,29.94,3.0,South,6.9,-,N/A,,Haze,190,2012-11-01 21:53:00
5:53 PM,63.0,39.9,43,29.93,6.0,South,8.1,-,N/A,,Haze,190,2012-11-01 22:53:00
6:53 PM,57.0,41.0,55,29.93,10.0,SSW,6.9,-,N/A,,Clear,200,2012-11-01 23:53:00
7:53 PM,55.9,41.0,57,29.92,10.0,SSW,8.1,-,N/A,,Clear,200,2012-11-02 00:53:00
8:53 PM,53.1,41.0,64,29.93,10.0,SSW,3.5,-,N/A,,Clear,210,2012-11-02 01:53:00
9:53 PM,52.0,41.0,66,29.93,10.0,SSW,4.6,-,N/A,,Clear,210,2012-11-02 02:53:00
10:53 PM,50.0,41.0,71,29.93,10.0,SW,5.8,-,N/A,,Clear,220,2012-11-02 03:53:00
11:53 PM,50.0,41.0,71,29.91,10.0,SSW,5.8,-,N/A,,Clear,210,2012-11-02 04:53:00